Tracking 28790 objects as of 19-Apr-2024
HD Live streaming from Space Station
objects crossing your sky now

COSMOS 1130

Track COSMOS 1130 now!
10-day predictions
COSMOS 1130 is classified as:


NORAD ID: 11538
Int'l Code: 1979-084A
Perigee: 1,403.9 km
Apogee: 1,487.3 km
Inclination: 74.0 °
Period: 114.6 minutes
Semi major axis: 7816 km
RCS: 0.7035 m2 (medium)
Launch date: September 25, 1979
Source: Commonwealth of Independent States (former USSR) (CIS)
Launch site: PLESETSK MISSILE AND SPACE COMPLEX (PKMTR)
Your satellite tracking list
Your tracking list is empty




NASA's NSSDC Master Catalog

Two Line Element Set (TLE):
1 11538U 79084A   24109.25232750 -.00000005  00000-0  69598-4 0  9995
2 11538  74.0274  42.0602 0053372 208.4371 263.4185 12.56249868 43617
Source of the keplerian elements: AFSPC